Weather History for Cincinnati, OH

Change the Weather History Date:

Friday, September 13, 2013

  Actual Average Record
Temperature  
Mean Temperature 60 °F -  
Max Temperature 66 °F 82 °F 95 °F (1991)
Min Temperature 50 °F 59 °F 43 °F (1958)
Degree Days  
Heating Degree Days 6    
Growing Degree Days 10 (Base 50)    
Moisture  
Dew Point 49 °F    
Average Humidity 66    
Maximum Humidity 89    
Minimum Humidity 43    
Precipitation  
Precipitation 0.00 in - - ()
Sea Level Pressure  
Sea Level Pressure 30.03 in    
Wind  
Wind Speed 10 mph (North)    
Max Wind Speed 16 mph    
Max Gust Speed 25 mph    
Visibility 10 miles    
Events      
Averages and records for this station are not official NWS values.
T = Trace of Precipitation, MM = Missing Value Source: NWS Daily Summary

Daily Weather History Graph

Daily Weather History Graph

Search for Another Location

Airport:

Trip Planner

Search our weather history database for the weather conditions in past years. The results will help you decide how hot, cold, wet, or windy it might be!

Date:

Astronomy

Sep. 13, 2013 Rise Set
Actual Time 7:17 AM EDT 7:48 PM EDT
Civil Twilight 6:50 AM EDT 8:15 PM EDT
Nautical Twilight 6:18 AM EDT 8:47 PM EDT
Astronomical Twilight 5:46 AM EDT 9:19 PM EDT
Moon 3:36 PM EDT (9/13) 12:47 AM EDT (9/13)
Length of Visible Light 13h 25m
Length of Day
12h 31m
First Quarter, 61% of the Moon is Illuminated
Sep 13
First Quarter
Sep 19
Full
Sep 26
Last Quarter
Oct 4
New
Oct 11
First Quarter

Hourly Weather History & Observations

Time (EDT) Temp. Dew Point Humidity Pressure Visibility Wind Dir Wind Speed Gust Speed Precip Events Conditions
12:53 AM 68.0 °F 59.0 °F 73% 29.94 in 10.0 mi North 13.8 mph 19.6 mph N/A   Partly Cloudy
1:10 AM 66.2 °F 60.8 °F 83% 29.95 in 10.0 mi North 9.2 mph - N/A   Mostly Cloudy
1:32 AM 66.2 °F 59.0 °F 78% 29.96 in 10.0 mi North 11.5 mph - N/A   Scattered Clouds
1:53 AM 66.0 °F 59.0 °F 78% 29.96 in 10.0 mi North 11.5 mph 18.4 mph N/A   Clear
2:53 AM 63.0 °F 55.0 °F 75% 29.97 in 10.0 mi North 6.9 mph - N/A   Partly Cloudy
3:53 AM 61.0 °F 55.0 °F 81% 29.98 in 10.0 mi North 6.9 mph - N/A   Clear
4:53 AM 60.1 °F 53.1 °F 78% 29.99 in 10.0 mi North 10.4 mph - N/A   Clear
5:53 AM 59.0 °F 52.0 °F 78% 30.01 in 10.0 mi North 8.1 mph - N/A   Clear
6:53 AM 57.0 °F 50.0 °F 77% 30.03 in 10.0 mi North 9.2 mph - N/A   Clear
7:53 AM 57.0 °F 48.0 °F 72% 30.04 in 10.0 mi North 4.6 mph - N/A   Clear
8:53 AM 59.0 °F 48.9 °F 69% 30.05 in 10.0 mi North 11.5 mph - N/A   Clear
9:53 AM 61.0 °F 48.9 °F 64% 30.06 in 10.0 mi NNW 10.4 mph - N/A   Scattered Clouds
10:53 AM 63.0 °F 46.0 °F 54% 30.06 in 10.0 mi North 10.4 mph 18.4 mph N/A   Scattered Clouds
11:53 AM 62.1 °F 43.0 °F 50% 30.06 in 10.0 mi NNW 15.0 mph 21.9 mph N/A   Mostly Cloudy
12:53 PM 63.0 °F 43.0 °F 48% 30.06 in 10.0 mi North 13.8 mph - N/A   Mostly Cloudy
1:53 PM 64.0 °F 43.0 °F 46% 30.06 in 10.0 mi North 13.8 mph 19.6 mph N/A   Overcast
2:53 PM 64.9 °F 42.1 °F 43% 30.06 in 10.0 mi NNW 16.1 mph 25.3 mph N/A   Scattered Clouds
3:53 PM 64.9 °F 44.1 °F 47% 30.05 in 10.0 mi North 9.2 mph 19.6 mph N/A   Mostly Cloudy
4:53 PM 64.0 °F 45.0 °F 50% 30.04 in 10.0 mi NNE 10.4 mph 18.4 mph N/A   Mostly Cloudy
5:53 PM 63.0 °F 43.0 °F 48% 30.05 in 10.0 mi North 10.4 mph - N/A   Overcast
6:53 PM 63.0 °F 44.1 °F 50% 30.06 in 10.0 mi NNE 10.4 mph - N/A   Overcast
7:53 PM 61.0 °F 42.1 °F 50% 30.07 in 10.0 mi NNE 4.6 mph - N/A   Mostly Cloudy
8:53 PM 57.0 °F 45.0 °F 64% 30.08 in 10.0 mi Calm Calm - N/A   Clear
9:53 PM 53.1 °F 48.0 °F 83% 30.09 in 10.0 mi Calm Calm - N/A   Clear
10:53 PM 51.1 °F 46.9 °F 86% 30.10 in 10.0 mi Calm Calm - N/A   Clear
11:53 PM 50.0 °F 46.9 °F 89% 30.11 in 10.0 mi Calm Calm - N/A   Clear